Terminal Aerodrome Forecast
Issued by NWS Quad Cities IA IL

Home | Current Version | Previous Version | Graphics & Text | Print | Product List | Glossary On
Versions: 1 2 3 4 5 6 7 8 9 10 11 12 13 14 15 16 17 18 19 20 21 22 23 24 25 26 27 28 29 30 31
000
FTUS43 KDVN 060301 AAB
TAFMLI
TAF AMD
KMLI 060301Z 0603/0624 11012KT P6SM OVC009
     FM060600 12009KT 5SM BR OVC006
     FM060900 13005KT 1/2SM FG OVC002
     FM061200 23005KT 1SM BR OVC004
     FM061700 28014G24KT 6SM BR BKN050=

USA.gov is the U.S. government's official web portal to all federal, state and local government web resources and services.